When you browse on this site, cookies collect data to enhance your experience and personalize the content and advertising you see.
Visit our Privacy Policy to learn more. By continuing to use the site, you agree to this use of cookies and data.
  • In Portugal
  • List of Countries
  • For 7 days
  • Water Temperature
  • Satellite Maps
  • Weather Map
  • Weather Widgets
  • user-avatar
    Login

    Hourly Weather Kerman

    Today, 26 April, Friday

    Time Temperature Precipitation Wind Pressure Humidity
    00:00 +15°C° 0 mm 2 mps 605 mmHg 29%
    01:00 +14°C° 0 mm 2 mps 605 mmHg 30%
    02:00 +13°C° 0 mm 2 mps 604 mmHg 32%
    03:00 +13°C° 0 mm 2 mps 604 mmHg 33%
    04:00 +12°C° 0 mm 2 mps 604 mmHg 33%
    05:00 +10°C° 0 mm 2 mps 604 mmHg 32%
    06:00 +10°C° 0 mm 2 mps 604 mmHg 32%
    07:00 +10°C° 0 mm 2 mps 604 mmHg 31%
    08:00 +13°C° 0 mm 2 mps 605 mmHg 29%
    09:00 +14°C° 0 mm 2 mps 606 mmHg 27%
    10:00 +16°C° 0 mm 2 mps 606 mmHg 26%
    11:00 +17°C° 0 mm 2 mps 607 mmHg 24%
    12:00 +18°C° 0 mm 3 mps 607 mmHg 22%
    13:00 +20°C° 0 mm 3 mps 607 mmHg 21%
    14:00 +20°C° 0 mm 3 mps 607 mmHg 20%
    15:00 +21°C° 0 mm 4 mps 607 mmHg 19%
    16:00 +21°C° 0 mm 4 mps 607 mmHg 18%
    17:00 +21°C° 0 mm 4 mps 606 mmHg 19%
    18:00 +20°C° 0 mm 4 mps 606 mmHg 19%
    19:00 +19°C° 0 mm 4 mps 606 mmHg 20%
    20:00 +19°C° 0 mm 4 mps 606 mmHg 22%
    21:00 +18°C° 0 mm 3 mps 606 mmHg 23%
    22:00 +17°C° 0 mm 3 mps 606 mmHg 25%
    23:00 +16°C° 0 mm 3 mps 606 mmHg 26%

    Tomorrow, 27 April, Saturday

    Time Temperature Precipitation Wind Pressure Humidity
    00:00 +14°C° 0 mm 3 mps 606 mmHg 28%
    01:00 +14°C° 0 mm 3 mps 605 mmHg 29%
    02:00 +14°C° 0 mm 2 mps 605 mmHg 31%
    03:00 +13°C° 0 mm 2 mps 605 mmHg 33%
    04:00 +13°C° 0 mm 2 mps 605 mmHg 34%
    05:00 +13°C° 0 mm 2 mps 605 mmHg 34%
    06:00 +12°C° 0 mm 2 mps 605 mmHg 35%
    07:00 +12°C° 0 mm 2 mps 605 mmHg 35%
    08:00 +14°C° 0 mm 2 mps 606 mmHg 32%
    09:00 +15°C° 0 mm 2 mps 607 mmHg 30%
    10:00 +16°C° 0 mm 2 mps 607 mmHg 28%
    11:00 +18°C° 0 mm 2 mps 607 mmHg 25%
    12:00 +19°C° 0 mm 2 mps 608 mmHg 22%
    13:00 +20°C° 0 mm 3 mps 608 mmHg 19%
    14:00 +21°C° 0 mm 3 mps 608 mmHg 17%
    15:00 +22°C° 0 mm 4 mps 608 mmHg 15%
    16:00 +22°C° 0 mm 4 mps 608 mmHg 13%
    17:00 +22°C° 0 mm 4 mps 607 mmHg 14%
    18:00 +21°C° 0 mm 4 mps 607 mmHg 14%
    19:00 +21°C° 0 mm 3 mps 607 mmHg 15%
    20:00 +20°C° 0 mm 3 mps 607 mmHg 16%
    21:00 +19°C° 0 mm 2 mps 607 mmHg 18%
    22:00 +19°C° 0 mm 2 mps 607 mmHg 20%
    23:00 +18°C° 0 mm 2 mps 607 mmHg 22%

    Day after tomorrow, 28 April, Sunday

    Time Temperature Precipitation Wind Pressure Humidity
    00:00 +18°C° 0 mm 1 mps 607 mmHg 24%
    01:00 +18°C° 0 mm 1 mps 606 mmHg 26%
    02:00 +16°C° 0 mm 1 mps 606 mmHg 28%
    03:00 +15°C° 0 mm 1 mps 606 mmHg 30%
    04:00 +15°C° 0 mm 1 mps 605 mmHg 32%
    05:00 +15°C° 0 mm 1 mps 605 mmHg 30%
    06:00 +16°C° 0 mm 1 mps 606 mmHg 28%
    07:00 +16°C° 0 mm 1 mps 606 mmHg 27%
    08:00 +18°C° 0 mm 2 mps 607 mmHg 24%
    09:00 +19°C° 0 mm 2 mps 607 mmHg 21%
    10:00 +21°C° 0 mm 2 mps 608 mmHg 17%
    11:00 +22°C° 0 mm 4 mps 607 mmHg 18%
    12:00 +23°C° 0 mm 6 mps 607 mmHg 18%
    13:00 +24°C° 0 mm 8 mps 607 mmHg 18%
    14:00 +23°C° 0 mm 9 mps 607 mmHg 21%
    15:00 +23°C° 0 mm 10 mps 606 mmHg 23%
    16:00 +23°C° 0 mm 11 mps 606 mmHg 25%
    17:00 +22°C° 0.1 mm 10 mps 606 mmHg 28%
    18:00 +19°C° 0.1 mm 9 mps 605 mmHg 31%
    19:00 +18°C° 0.1 mm 8 mps 605 mmHg 35%
    20:00 +18°C° 0.2 mm 7 mps 605 mmHg 36%
    21:00 +17°C° 0.2 mm 6 mps 605 mmHg 38%
    22:00 +17°C° 0.2 mm 5 mps 606 mmHg 40%
    23:00 +17°C° 0 mm 4 mps 605 mmHg 42%

    29 April, Monday

    Time Temperature Precipitation Wind Pressure Humidity
    00:00 +17°C° 0 mm 4 mps 605 mmHg 43%
    01:00 +16°C° 0 mm 3 mps 605 mmHg 45%
    02:00 +14°C° 0 mm 3 mps 605 mmHg 48%
    03:00 +14°C° 0 mm 3 mps 604 mmHg 51%
    04:00 +14°C° 0 mm 2 mps 604 mmHg 54%
    05:00 +14°C° 0 mm 2 mps 604 mmHg 54%
    06:00 +14°C° 0 mm 2 mps 605 mmHg 54%
    07:00 +13°C° 0 mm 2 mps 605 mmHg 54%
    08:00 +14°C° 0 mm 2 mps 606 mmHg 49%
    09:00 +15°C° 0 mm 2 mps 606 mmHg 45%
    10:00 +16°C° 0 mm 2 mps 607 mmHg 40%
    11:00 +17°C° 0 mm 2 mps 607 mmHg 35%
    12:00 +18°C° 0 mm 2 mps 607 mmHg 31%
    13:00 +19°C° 0 mm 2 mps 607 mmHg 26%
    14:00 +20°C° 0 mm 2 mps 607 mmHg 23%
    15:00 +21°C° 0 mm 3 mps 607 mmHg 21%
    16:00 +21°C° 0 mm 3 mps 607 mmHg 19%
    17:00 +21°C° 0 mm 3 mps 607 mmHg 18%
    18:00 +20°C° 0 mm 3 mps 607 mmHg 18%
    19:00 +20°C° 0 mm 3 mps 607 mmHg 18%
    20:00 +19°C° 0 mm 2 mps 607 mmHg 19%
    21:00 +19°C° 0 mm 2 mps 607 mmHg 20%
    22:00 +20°C° 0 mm 1 mps 607 mmHg 21%
    23:00 +19°C° 0 mm 1 mps 607 mmHg 22%

    30 April, Tuesday

    Time Temperature Precipitation Wind Pressure Humidity
    00:00 +18°C° 0 mm 1 mps 606 mmHg 23%
    01:00 +18°C° 0 mm 1 mps 606 mmHg 23%
    02:00 +16°C° 0 mm 1 mps 605 mmHg 25%
    03:00 +16°C° 0 mm 1 mps 605 mmHg 26%
    04:00 +15°C° 0 mm 2 mps 605 mmHg 27%
    05:00 +16°C° 0 mm 2 mps 605 mmHg 27%
    06:00 +16°C° 0 mm 2 mps 606 mmHg 26%
    07:00 +16°C° 0 mm 2 mps 606 mmHg 25%
    08:00 +18°C° 0 mm 2 mps 607 mmHg 22%
    09:00 +20°C° 0 mm 1 mps 608 mmHg 20%
    10:00 +21°C° 0 mm 1 mps 608 mmHg 17%
    11:00 +23°C° 0 mm 1 mps 608 mmHg 16%
    12:00 +24°C° 0 mm 1 mps 608 mmHg 14%
    13:00 +25°C° 0 mm 2 mps 608 mmHg 13%
    14:00 +25°C° 0 mm 2 mps 608 mmHg 12%
    15:00 +25°C° 0 mm 2 mps 607 mmHg 11%
    16:00 +26°C° 0 mm 3 mps 607 mmHg 11%
    17:00 +25°C° 0 mm 2 mps 607 mmHg 11%
    18:00 +25°C° 0 mm 2 mps 607 mmHg 12%
    19:00 +24°C° 0 mm 2 mps 607 mmHg 13%
    20:00 +24°C° 0 mm 2 mps 607 mmHg 14%
    21:00 +23°C° 0 mm 2 mps 607 mmHg 16%
    22:00 +21°C° 0 mm 2 mps 607 mmHg 17%
    23:00 +22°C° 0 mm 1 mps 606 mmHg 19%

    1 May, Wednesday

    Time Temperature Precipitation Wind Pressure Humidity
    00:00 +21°C° 0 mm 1 mps 605 mmHg 21%
    01:00 +20°C° 0 mm 1 mps 605 mmHg 23%
    02:00 +19°C° 0 mm 1 mps 604 mmHg 24%
    03:00 +19°C° 0 mm 1 mps 604 mmHg 25%
    04:00 +18°C° 0 mm 1 mps 604 mmHg 26%
    05:00 +18°C° 0 mm 1 mps 604 mmHg 24%
    06:00 +19°C° 0 mm 1 mps 605 mmHg 22%
    07:00 +19°C° 0 mm 1 mps 606 mmHg 19%
    08:00 +20°C° 0 mm 1 mps 606 mmHg 17%
    09:00 +22°C° 0 mm 1 mps 607 mmHg 15%
    10:00 +23°C° 0 mm 2 mps 607 mmHg 13%
    11:00 +24°C° 0 mm 2 mps 607 mmHg 12%
    12:00 +24°C° 0 mm 2 mps 607 mmHg 12%
    13:00 +25°C° 0 mm 3 mps 607 mmHg 11%
    14:00 +25°C° 0 mm 3 mps 607 mmHg 11%
    15:00 +26°C° 0 mm 3 mps 606 mmHg 11%
    16:00 +26°C° 0 mm 4 mps 606 mmHg 10%
    17:00 +25°C° 0 mm 3 mps 606 mmHg 11%
    18:00 +25°C° 0 mm 3 mps 606 mmHg 12%
    19:00 +24°C° 0 mm 3 mps 606 mmHg 12%
    20:00 +24°C° 0 mm 2 mps 606 mmHg 14%
    21:00 +23°C° 0 mm 2 mps 606 mmHg 16%
    22:00 +22°C° 0 mm 1 mps 606 mmHg 18%
    23:00 +21°C° 0 mm 1 mps 606 mmHg 19%
    Show more